DMSP 5D-2 F11 DEB, 28345

Orbit data source: Space-Track

DMSP 5D-2 F11 DEB, 28345 is space debris in SSO originally from a launch on Thu, 28 Nov 1991 UTC launched from the Air Force Western Test Range (AFWTR). Debris objects in space refer to the collection of defunct objects orbiting the Earth. Examples of debris include non-operational satellites, rocket bodies, and fragments generated from explosions, collisions, or faulty payload assembly.

Loading next visibility...
Identifier
28345, 1991-082BJ
Orbit
SSO
Country
Flag of USUS
Related business
Manufacturer
Unknown
Mission
Spacecraft
Bus & Motor
Unknown
Mass
Unknown
Launch date (UTC)
1991-11-28 (34 years ago)
Launch vehicle
Unknown
Launch site
Air Force Western Test Range (AFWTR)
Object type
Payload
Rocket body
Debris
Shape & HBR
Unknown shape, 0.1 m
Radar Cross Section
Small (<0.1 m²)

Expand to show TLE details & history
Last TLE update: 11 hours ago

TLE from 11 hours ago
0 DMSP 5D-2 F11 DEB
1 28345U 91082BJ  25349.71292217  .00016475  00000-0  33333-2 0  9996
2 28345  98.6220  83.3541 0054754 105.5132 255.2122 14.60434029102653
Epoch: 2025-12-15T17:06Z
TLE epoch observation values (Epoch: 2025-12-15T17:06:36.475Z)
Latitude
-0.00001°
Longitude
102.09458°
Altitude
704.826 km
Speed
7.498 km/s
True Right ascension
05h 33m 24s
True Declination
0° 00' 00"
Sunlit
Object was in full shadow at epoch
Visualization orbit readout
Latitude
Unknown
Longitude
Unknown
Altitude
Unknown
Speed
Unknown
Apparent Right ascension
Unknown
Apparent Declination
Unknown
Sunlit
N/A
Visualization observer readout
Local Sidereal Time
03:06:11
Azimuth
Unknown
Elevation
Unknown
Doppler factor
Unknown
Orbital elements
Apogee altitude
727.568 km
Perigee altitude
650.179 km
Semi-major axis
7,067.01 km
Eccentricity
0.00548
Inclination
98.622°
RAAN
83.3541°
Arg. of periapsis
105.5132°
True anomaly
254.60662°
Mean anomaly
255.2122°
Eccentric anomaly
254.9093°
Mean motion
3.65334 °/min
Orbital period
98.54 mins
BSTAR
0.0033333
Loading maneuver chart data...
Computing Atmospheric mass density...

Documentation

Showing up to 5 results
|